^^
Station Historical Data
Daily Summary for Nil La, TWC- Units:  Metric    English   Both
« Previous Day
Next Day »
Daily Weekly Monthly Yearly Custom
  High: Low: Average:
Temperature: -17.8 °C 18.8 °C 21 °C
Dew Point: -17.8 °C 11.9 °C 13.1 °C
Humidity: Humidity% 44% 61%
Wind Speed: 0km/h 3.2km/h 16.7km/h
Wind Gust: 0km/h - -
Wind- - SE
Pressure: 0 hPa 1014.1 hPa -
Precipitation: 0 mm    
Historical Graphs
 
 
Tabular Data for Nil La, TWC-
Time Temperature Dew Point Pressure Wind Wind Speed Wind Gust Humidity Rainfall Rate (Hourly) solar Conditions
-17.8 °C -17.8 °C 0 hPa Calm     Humidity% 0 mm SolarRadiationWatts/m^2 W/m2 Conditions
00:03 21.3 °C 15.2 °C 1014.8 hPa NNE 6.4 km/h 16.1 km/h 68% 0 mm 0.00 W/m2
00:09 21.3 °C 15.2 °C 1014.4 hPa NNE 9.7 km/h 17.7 km/h 68% 0 mm 0.00 W/m2
00:13 21.3 °C 14.9 °C 1014.4 hPa NNE 9.7 km/h 14.5 km/h 67% 0 mm 0.00 W/m2
00:19 21.3 °C 14.7 °C 1014.4 hPa NNE 9.7 km/h 16.1 km/h 66% 0 mm 0.00 W/m2
00:23 21.3 °C 14.2 °C 1014.4 hPa NE 13 km/h 17.7 km/h 64% 0 mm 0.00 W/m2
00:29 21.4 °C 14.1 °C 1014.4 hPa NE 11.1 km/h 20.9 km/h 63% 0 mm 0.00 W/m2
00:33 21.5 °C 14.2 °C 1014.4 hPa North 14.3 km/h 17.7 km/h 63% 0 mm 0.00 W/m2
00:39 21.5 °C 14.4 °C 1014.4 hPa North 3.2 km/h 17.7 km/h 64% 0 mm 0.00 W/m2
00:43 21.5 °C 14.4 °C 1014.8 hPa NNE 7.9 km/h 12.9 km/h 64% 0 mm 0.00 W/m2
00:49 21.4 °C 14.3 °C 1014.8 hPa North 20.9 km/h 20.9 km/h 64% 0 mm 0.00 W/m2
00:53 21.4 °C 14.3 °C 1014.8 hPa NNE 11.1 km/h 22.5 km/h 64% 0 mm 0.00 W/m2
00:59 21.4 °C 14.3 °C 1014.8 hPa North 14.3 km/h 22.5 km/h 64% 0 mm 0.00 W/m2
01:03 21.3 °C 14.2 °C 1014.8 hPa North 9.7 km/h 27.4 km/h 64% 0 mm 0.00 W/m2
01:07 21.2 °C 14.4 °C 1014.8 hPa North 14.3 km/h 17.7 km/h 65% 0 mm 0.00 W/m2
01:14 21.1 °C 14.3 °C 1014.8 hPa North 14.3 km/h 17.7 km/h 65% 0 mm 0.00 W/m2
01:18 21.1 °C 14.3 °C 1014.8 hPa North 11.1 km/h 20.9 km/h 65% 0 mm 0.00 W/m2
01:24 21 °C 14.2 °C 1014.4 hPa North 11.1 km/h 19.3 km/h 65% 0 mm 0.00 W/m2
01:28 21 °C 14.2 °C 1014.4 hPa North 14.3 km/h 22.5 km/h 65% 0 mm 0.00 W/m2
01:34 20.9 °C 14.1 °C 1014.4 hPa North 9.7 km/h 19.3 km/h 65% 0 mm 0.00 W/m2
01:38 20.9 °C 14.1 °C 1014.4 hPa NNE 19.5 km/h 22.5 km/h 65% 0 mm 0.00 W/m2
01:44 20.8 °C 14 °C 1014.1 hPa North 17.7 km/h 24.1 km/h 65% 0 mm 0.00 W/m2
01:48 20.8 °C 14 °C 1014.1 hPa NNW 11.1 km/h 29 km/h 65% 0 mm 0.00 W/m2
01:54 20.8 °C 14 °C 1014.4 hPa North 9.7 km/h 20.9 km/h 65% 0 mm 0.00 W/m2
01:58 20.8 °C 14 °C 1014.4 hPa North 13 km/h 24.1 km/h 65% 0 mm 0.00 W/m2
02:04 20.8 °C 13.7 °C 1014.4 hPa NNW 9.7 km/h 27.4 km/h 64% 0 mm 0.00 W/m2
02:08 20.8 °C 13.7 °C 1014.4 hPa North 14.3 km/h 24.1 km/h 64% 0 mm 0.00 W/m2
02:14 20.7 °C 13.6 °C 1014.4 hPa NNE 7.9 km/h 22.5 km/h 64% 0 mm 0.00 W/m2
02:18 20.7 °C 13.4 °C 1014.4 hPa NNE 16.3 km/h 25.7 km/h 63% 0 mm 0.00 W/m2
02:23 20.7 °C 13.4 °C 1014.4 hPa North 19.5 km/h 20.9 km/h 63% 0 mm 0.00 W/m2
02:29 20.8 °C 13.5 °C 1014.4 hPa NW 24.1 km/h 33.8 km/h 63% 0 mm 0.00 W/m2
02:33 20.8 °C 13.5 °C 1014.4 hPa North 20.9 km/h 25.7 km/h 63% 0 mm 0.00 W/m2
02:39 20.7 °C 13.4 °C 1014.4 hPa NE 22.7 km/h 27.4 km/h 63% 0 mm 0.00 W/m2
02:43 20.7 °C 13.4 °C 1014.4 hPa North 11.1 km/h 22.5 km/h 63% 0 mm 0.00 W/m2
02:49 20.6 °C 13.3 °C 1014.4 hPa North 22.7 km/h 30.6 km/h 63% 0 mm 0.00 W/m2
02:53 20.6 °C 13.3 °C 1014.4 hPa North 19.5 km/h 30.6 km/h 63% 0 mm 0.00 W/m2
02:58 20.5 °C 13.2 °C 1014.4 hPa North 17.7 km/h 24.1 km/h 63% 0 mm 0.00 W/m2
03:04 20.4 °C 13.4 °C 1014.4 hPa NNW 19.5 km/h 19.3 km/h 64% 0 mm 0.00 W/m2
03:08 20.4 °C 13.4 °C 1014.4 hPa North 11.1 km/h 30.6 km/h 64% 0 mm 0.00 W/m2
03:14 20.4 °C 13.4 °C 1014.8 hPa NW 19.5 km/h 24.1 km/h 64% 0 mm 0.00 W/m2
03:18 20.4 °C 13.4 °C 1014.8 hPa North 14.3 km/h 30.6 km/h 64% 0 mm 0.00 W/m2
03:24 20.4 °C 13.4 °C 1014.8 hPa North 20.9 km/h 33.8 km/h 64% 0 mm 0.00 W/m2
03:28 20.3 °C 13.3 °C 1014.4 hPa North 20.9 km/h 24.1 km/h 64% 0 mm 0.00 W/m2
03:34 20.2 °C 13.2 °C 1014.8 hPa North 17.7 km/h 27.4 km/h 64% 0 mm 0.00 W/m2
03:38 20.2 °C 13.2 °C 1014.4 hPa North 19.5 km/h 27.4 km/h 64% 0 mm 0.00 W/m2
03:44 20.2 °C 13.2 °C 1014.8 hPa NNE 27.4 km/h 30.6 km/h 64% 0 mm 0.00 W/m2
03:48 20.2 °C 13.4 °C 1014.8 hPa NNE 19.5 km/h 32.2 km/h 65% 0 mm 0.00 W/m2
03:54 20.1 °C 13.3 °C 1014.8 hPa North 16.3 km/h 38.6 km/h 65% 0 mm 0.00 W/m2
03:58 20.1 °C 13.3 °C 1014.8 hPa North 28.8 km/h 32.2 km/h 65% 0 mm 0.00 W/m2
04:04 20.1 °C 13.3 °C 1014.8 hPa NNE 16.3 km/h 32.2 km/h 65% 0 mm 0.00 W/m2
04:08 20.1 °C 13.3 °C 1014.8 hPa North 22.7 km/h 32.2 km/h 65% 0 mm 0.00 W/m2
04:14 20.1 °C 13.3 °C 1014.4 hPa NNE 25.9 km/h 30.6 km/h 65% 0 mm 0.00 W/m2
04:18 20.1 °C 13.3 °C 1014.8 hPa North 17.7 km/h 35.4 km/h 65% 0 mm 0.00 W/m2
04:24 19.9 °C 13.1 °C 1014.4 hPa North 16.3 km/h 30.6 km/h 65% 0 mm 0.00 W/m2
04:29 19.8 °C 13.3 °C 1014.8 hPa North 19.5 km/h 35.4 km/h 66% 0 mm 0.00 W/m2
04:33 19.8 °C 13.3 °C 1014.4 hPa NNE 19.5 km/h 38.6 km/h 66% 0 mm 0.00 W/m2
04:39 19.7 °C 13.2 °C 1014.4 hPa NNE 16.3 km/h 40.2 km/h 66% 0 mm 0.00 W/m2
04:43 19.7 °C 13.2 °C 1014.4 hPa North 33.8 km/h 37 km/h 66% 0 mm 0.00 W/m2
04:49 19.6 °C 13.3 °C 1014.4 hPa NNE 16.3 km/h 25.7 km/h 67% 0 mm 0.00 W/m2
04:53 19.5 °C 13.2 °C 1014.8 hPa NNE 17.7 km/h 33.8 km/h 67% 0 mm 0.00 W/m2
04:59 19.4 °C 13.1 °C 1014.8 hPa North 16.3 km/h 37 km/h 67% 0 mm 0.00 W/m2
05:03 19.4 °C 13.1 °C 1014.8 hPa North 14.3 km/h 27.4 km/h 67% 0 mm 0.00 W/m2
05:09 19.3 °C 13.2 °C 1015.1 hPa NNE 20.9 km/h 33.8 km/h 68% 0 mm 0.00 W/m2
05:14 19.2 °C 13.1 °C 1015.1 hPa North 17.7 km/h 30.6 km/h 68% 0 mm 0.00 W/m2
05:18 19.2 °C 13.1 °C 1015.1 hPa NNE 16.3 km/h 30.6 km/h 68% 0 mm 0.00 W/m2
05:24 19.1 °C 13.3 °C 1015.1 hPa North 14.3 km/h 30.6 km/h 69% 0 mm 0.00 W/m2
05:28 19 °C 13.2 °C 1014.8 hPa North 28.8 km/h 29 km/h 69% 0 mm 0.00 W/m2
05:34 18.9 °C 13.1 °C 1014.8 hPa NE 14.3 km/h 24.1 km/h 69% 0 mm 0.00 W/m2
05:38 18.9 °C 13.3 °C 1014.4 hPa NNE 14.3 km/h 24.1 km/h 70% 0 mm 0.00 W/m2
05:44 18.8 °C 13.2 °C 1014.4 hPa NE 9.7 km/h 17.7 km/h 70% 0 mm 0.00 W/m2
05:49 18.8 °C 13.2 °C 1014.4 hPa NNE 16.3 km/h 20.9 km/h 70% 0 mm 0.00 W/m2
05:53 18.9 °C 13.3 °C 1014.4 hPa NNE 16.3 km/h 16.1 km/h 70% 0 mm 0.00 W/m2
05:59 18.9 °C 13.1 °C 1014.8 hPa NE 11.1 km/h 17.7 km/h 69% 0 mm 0.00 W/m2
06:03 19 °C 13.2 °C 1014.8 hPa NNE 19.5 km/h 20.9 km/h 69% 0 mm 0.00 W/m2
06:09 19.2 °C 13.4 °C 1014.8 hPa NNE 11.1 km/h 17.7 km/h 69% 0 mm 0.00 W/m2
06:13 19.2 °C 13.1 °C 1014.8 hPa NNE 14.3 km/h 25.7 km/h 68% 0 mm 0.00 W/m2
06:19 19.4 °C 13.3 °C 1014.8 hPa North 9.7 km/h 22.5 km/h 68% 0 mm 7.00 W/m2
06:21 19.4 °C 13.1 °C 1015.1 hPa NNE 14.3 km/h 19.3 km/h 67% 0 mm 7.00 W/m2
06:27 19.6 °C 13.3 °C 1015.1 hPa NNE 14.3 km/h 22.5 km/h 67% 0 mm 11.00 W/m2
06:33 19.6 °C 13.3 °C 1015.1 hPa NNE 16.3 km/h 16.1 km/h 67% 0 mm 12.00 W/m2
06:39 19.6 °C 13.3 °C 1015.5 hPa NE 17.7 km/h 22.5 km/h 67% 0 mm 16.00 W/m2
06:43 19.6 °C 13.3 °C 1015.5 hPa NNE 17.7 km/h 22.5 km/h 67% 0 mm 19.00 W/m2
06:49 19.6 °C 13.3 °C 1015.5 hPa NNE 17.7 km/h 19.3 km/h 67% 0 mm 26.00 W/m2
06:51 19.6 °C 13.3 °C 1015.5 hPa NNE 9.7 km/h 17.7 km/h 67% 0 mm 30.00 W/m2
06:59 19.6 °C 13.3 °C 1015.8 hPa NNE 14.3 km/h 27.4 km/h 67% 0 mm 35.00 W/m2
07:03 19.6 °C 13.3 °C 1015.8 hPa NNW 9.7 km/h 29 km/h 67% 0 mm 37.00 W/m2
07:07 19.5 °C 13.2 °C 1015.8 hPa NNE 20.9 km/h 29 km/h 67% 0 mm 39.00 W/m2
07:14 19.4 °C 13.3 °C 1016.1 hPa North 16.3 km/h 37 km/h 68% 0 mm 44.00 W/m2
07:18 19.4 °C 13.3 °C 1015.8 hPa North 25.9 km/h 29 km/h 68% 0 mm 46.00 W/m2
07:24 19.4 °C 13.3 °C 1016.1 hPa NNE 20.9 km/h 37 km/h 68% 0 mm 53.00 W/m2
07:28 19.5 °C 13.4 °C 1015.8 hPa North 16.3 km/h 32.2 km/h 68% 0 mm 60.00 W/m2
07:34 19.5 °C 13.4 °C 1015.8 hPa NE 22.7 km/h 37 km/h 68% 0 mm 72.00 W/m2
07:38 19.6 °C 13.5 °C 1016.1 hPa NNE 24.1 km/h 35.4 km/h 68% 0 mm 79.00 W/m2
07:44 19.7 °C 13.4 °C 1016.1 hPa NNE 13 km/h 30.6 km/h 67% 0 mm 98.00 W/m2
07:48 19.7 °C 13.4 °C 1016.1 hPa North 20.9 km/h 32.2 km/h 67% 0 mm 111.00 W/m2
07:54 19.9 °C 13.4 °C 1016.1 hPa North 24.1 km/h 32.2 km/h 66% 0 mm 121.00 W/m2
07:58 20 °C 13.5 °C 1016.1 hPa NNE 22.7 km/h 29 km/h 66% 0 mm 134.00 W/m2
08:04 20.2 °C 13.4 °C 1016.5 hPa NNW 17.7 km/h 32.2 km/h 65% 0 mm 193.00 W/m2
08:08 20.4 °C 13.4 °C 1016.8 hPa NNE 17.7 km/h 29 km/h 64% 0 mm 216.00 W/m2
08:12 20.6 °C 13.3 °C 1016.8 hPa North 19.5 km/h 30.6 km/h 63% 0 mm 229.00 W/m2
08:18 21 °C 13.4 °C 1016.8 hPa NNW 19.5 km/h 24.1 km/h 62% 0 mm 582.00 W/m2
08:22 21.1 °C 13.3 °C 1016.8 hPa NNE 16.3 km/h 27.4 km/h 61% 0 mm 297.00 W/m2
08:29 21.1 °C 13.5 °C 1016.8 hPa NNW 11.1 km/h 27.4 km/h 62% 0 mm 290.00 W/m2
08:33 21.1 °C 13.5 °C 1016.8 hPa NNW 17.7 km/h 30.6 km/h 62% 0 mm 283.00 W/m2
08:39 21.1 °C 13.5 °C 1016.8 hPa NNW 19.5 km/h 30.6 km/h 62% 0 mm 292.00 W/m2
08:43 20.9 °C 13.3 °C 1016.8 hPa NNE 14.3 km/h 32.2 km/h 62% 0 mm 262.00 W/m2
08:47 20.9 °C 13.3 °C 1017.2 hPa NNW 13 km/h 30.6 km/h 62% 0 mm 232.00 W/m2
08:53 21 °C 13.4 °C 1017.2 hPa NNW 19.5 km/h 33.8 km/h 62% 0 mm 225.00 W/m2
08:57 21 °C 13.7 °C 1017.5 hPa NNW 19.5 km/h 35.4 km/h 63% 0 mm 251.00 W/m2
09:01 21 °C 13.7 °C 1017.5 hPa NNW 20.9 km/h 40.2 km/h 63% 0 mm 264.00 W/m2
09:09 21 °C 13.7 °C 1017.5 hPa North 28.8 km/h 29 km/h 63% 0 mm 272.00 W/m2
09:13 21 °C 13.7 °C 1017.5 hPa North 27.4 km/h 38.6 km/h 63% 0 mm 265.00 W/m2
09:19 20.9 °C 13.3 °C 1017.5 hPa North 19.5 km/h 38.6 km/h 62% 0 mm 271.00 W/m2
09:23 21.1 °C 13.5 °C 1017.5 hPa NW 28.8 km/h 35.4 km/h 62% 0 mm 276.00 W/m2
09:29 21.2 °C 13.6 °C 1017.5 hPa NNW 14.3 km/h 40.2 km/h 62% 0 mm 278.00 W/m2
09:33 21.3 °C 13.5 °C 1017.2 hPa NNW 17.7 km/h 37 km/h 61% 0 mm 269.00 W/m2
09:37 21.3 °C 13.5 °C 1017.5 hPa North 20.9 km/h 30.6 km/h 61% 0 mm 272.00 W/m2
09:43 21.3 °C 13.5 °C 1017.5 hPa North 22.7 km/h 27.4 km/h 61% 0 mm 253.00 W/m2
09:48 21.4 °C 13.6 °C 1017.5 hPa North 20.9 km/h 32.2 km/h 61% 0 mm 237.00 W/m2
09:54 21.6 °C 13.2 °C 1017.5 hPa NNE 22.7 km/h 35.4 km/h 59% 0 mm 229.00 W/m2
09:58 21.6 °C 13.2 °C 1017.5 hPa NW 17.7 km/h 32.2 km/h 59% 0 mm 216.00 W/m2
10:04 21.6 °C 13 °C 1017.5 hPa North 20.9 km/h 30.6 km/h 58% 0 mm 207.00 W/m2
10:08 21.7 °C 12.8 °C 1017.5 hPa North 14.3 km/h 29 km/h 57% 0 mm 213.00 W/m2
10:14 21.7 °C 13.1 °C 1017.5 hPa NNW 9.7 km/h 22.5 km/h 58% 0 mm 232.00 W/m2
10:18 21.8 °C 13.2 °C 1017.5 hPa North 20.9 km/h 29 km/h 58% 0 mm 232.00 W/m2
10:24 21.8 °C 12.9 °C 1017.5 hPa North 19.5 km/h 30.6 km/h 57% 0 mm 223.00 W/m2
10:28 21.8 °C 13.2 °C 1017.5 hPa NNE 22.7 km/h 30.6 km/h 58% 0 mm 221.00 W/m2
10:34 21.9 °C 13 °C 1017.5 hPa North 11.1 km/h 32.2 km/h 57% 0 mm 246.00 W/m2
10:38 21.9 °C 13 °C 1017.5 hPa NNW 9.7 km/h 27.4 km/h 57% 0 mm 234.00 W/m2
10:44 22 °C 12.8 °C 1017.8 hPa North 9.7 km/h 24.1 km/h 56% 0 mm 202.00 W/m2
10:48 22.1 °C 12.6 °C 1017.8 hPa NNE 17.7 km/h 27.4 km/h 55% 0 mm 206.00 W/m2
10:54 22.1 °C 12.4 °C 1017.8 hPa North 28.8 km/h 30.6 km/h 54% 0 mm 206.00 W/m2
10:58 22.1 °C 12.4 °C 1017.8 hPa North 27.4 km/h 32.2 km/h 54% 0 mm 207.00 W/m2
11:04 22.1 °C 12.4 °C 1017.8 hPa North 11.1 km/h 24.1 km/h 54% 0 mm 220.00 W/m2
11:09 22.1 °C 12.4 °C 1017.8 hPa NNW 19.5 km/h 25.7 km/h 54% 0 mm 237.00 W/m2
11:13 22.1 °C 12.4 °C 1017.8 hPa North 6.4 km/h 27.4 km/h 54% 0 mm 248.00 W/m2
11:19 22.2 °C 12.4 °C 1017.8 hPa NNE 16.3 km/h 20.9 km/h 54% 0 mm 278.00 W/m2
11:23 22.2 °C 12.2 °C 1017.8 hPa NE 17.7 km/h 27.4 km/h 53% 0 mm 283.00 W/m2
11:29 22.4 °C 12.1 °C 1017.8 hPa NNE 16.3 km/h 24.1 km/h 52% 0 mm 343.00 W/m2
11:33 22.5 °C 11.9 °C 1017.8 hPa NE 22.7 km/h 24.1 km/h 51% 0 mm 385.00 W/m2
11:39 22.7 °C 12.3 °C 1017.8 hPa NE 13 km/h 27.4 km/h 52% 0 mm 394.00 W/m2
11:43 22.7 °C 12.3 °C 1017.8 hPa NNE 20.9 km/h 22.5 km/h 52% 0 mm 399.00 W/m2
11:47 22.8 °C 12.4 °C 1017.8 hPa North 7.9 km/h 27.4 km/h 52% 0 mm 411.00 W/m2
11:53 23 °C 12.3 °C 1017.8 hPa NNE 9.7 km/h 20.9 km/h 51% 0 mm 397.00 W/m2
11:58 23.1 °C 12.4 °C 1017.8 hPa NE 25.9 km/h 29 km/h 51% 0 mm 385.00 W/m2
12:04 22.9 °C 12.5 °C 1017.8 hPa North 20.9 km/h 29 km/h 52% 0 mm 403.00 W/m2
12:08 23.1 °C 12.4 °C 1017.8 hPa NNE 24.1 km/h 24.1 km/h 51% 0 mm 411.00 W/m2
12:14 23.4 °C 12.4 °C 1017.5 hPa NNW 19.5 km/h 37 km/h 50% 0 mm 538.00 W/m2
12:18 23.6 °C 12.6 °C 1017.8 hPa North 17.7 km/h 33.8 km/h 50% 0 mm 619.00 W/m2
12:24 23.8 °C 12.4 °C 1017.5 hPa North 9.7 km/h 25.7 km/h 49% 0 mm 698.00 W/m2
12:28 24.1 °C 12.4 °C 1017.5 hPa NE 9.7 km/h 32.2 km/h 48% 0 mm 796.00 W/m2
12:34 24.4 °C 12.4 °C 1017.2 hPa NNE 19.5 km/h 33.8 km/h 47% 0 mm 937.00 W/m2
12:38 24.6 °C 12.5 °C 1017.2 hPa NNE 17.7 km/h 32.2 km/h 47% 0 mm 937.00 W/m2
12:42 25.2 °C 12.8 °C 1017.2 hPa North 19.5 km/h 35.4 km/h 46% 0 mm 937.00 W/m2
12:49 25.2 °C 12.8 °C 1017.2 hPa North 19.5 km/h 27.4 km/h 46% 0 mm 677.00 W/m2
12:53 25 °C 12.6 °C 1017.2 hPa NE 11.1 km/h 32.2 km/h 46% 0 mm 705.00 W/m2
12:59 24.7 °C 12.6 °C 1016.8 hPa NE 17.7 km/h 27.4 km/h 47% 0 mm 517.00 W/m2
13:03 24.8 °C 12.7 °C 1016.8 hPa North 13 km/h 35.4 km/h 47% 0 mm 497.00 W/m2
13:09 24.9 °C 12.8 °C 1016.8 hPa North 19.5 km/h 27.4 km/h 47% 0 mm 483.00 W/m2
13:13 25 °C 12.6 °C 1016.8 hPa North 11.1 km/h 35.4 km/h 46% 0 mm 482.00 W/m2
13:19 24.9 °C 12.5 °C 1016.8 hPa North 13 km/h 32.2 km/h 46% 0 mm 534.00 W/m2
13:23 25.7 °C 12.9 °C 1016.8 hPa North 14.3 km/h 32.2 km/h 45% 0 mm 1092.00 W/m2
13:29 26 °C 12.8 °C 1016.8 hPa NNE 19.5 km/h 33.8 km/h 44% 0 mm 1118.00 W/m2
13:34 25.6 °C 12.8 °C 1016.8 hPa North 20.9 km/h 32.2 km/h 45% 0 mm 503.00 W/m2
13:38 25.3 °C 12.8 °C 1016.8 hPa NE 13 km/h 22.5 km/h 46% 0 mm 503.00 W/m2
13:44 25.3 °C 12.5 °C 1016.8 hPa NE 14.3 km/h 32.2 km/h 45% 0 mm 466.00 W/m2
13:48 25 °C 12.6 °C 1016.8 hPa NNE 13 km/h 27.4 km/h 46% 0 mm 457.00 W/m2
13:54 24.8 °C 12.4 °C 1016.8 hPa NNE 13 km/h 32.2 km/h 46% 0 mm 446.00 W/m2
13:58 24.6 °C 12.5 °C 1016.8 hPa North 14.3 km/h 29 km/h 47% 0 mm 439.00 W/m2
Canyon Roadhouse, Fishriver Canyon, Namibia
Compliments of Weather Underground - 2.5 mb